Regional Weather Roundup
Issued by NWS Tiyan, Guam

Home | Current Version | Previous Version | Text Only | Print | Product List | Glossary On
Versions: 1 2 3 4 5 6 7 8 9 10 11 12 13 14 15 16 17 18 19 20 21 22 23 24 25 26 27 28 29 30 31 32 33 34 35 36 37 38 39 40 41 42 43 44 45 46 47 48 49 50
000
ASGM40 PGUM 272110
RWRGUM
WEATHER ROUNDUP FOR THE MARIANAS
NATIONAL WEATHER SERVICE TIYAN GU
700 AM CHST SAT FEB 28 2015

GUZ001>004-272200-
MARIANA ISLANDS-

CITY           SKY/WX    TMP DP  RH WIND       PRES   REMARKS
GUAM AIRPORT   LGT RAIN  79  73  83 E9        29.91R
ANDERSEN AFB   MOCLDY    77  72  83 E14       29.92R
ROTA AIRPORT   NOT AVBL
TINIAN AP      MOCLDY    77  73  88 E15       29.91
SAIPAN AP      PTCLDY    75  73  94 NE16      29.92R

$$




USA.gov is the U.S. government's official web portal to all federal, state and local government web resources and services.